{"data":{"norad_id":61926,"intl_designator":"2024-207Q","name":"STARLINK-32624","alt_names":[],"object_type":"PAYLOAD","status":"ACTIVE","operator":null,"country":"US","launch_date":"2024-11-11","launch_site_code":"AFETR","launch_vehicle":null,"mission":null,"orbit_class":"UNKNOWN","rcs_meters":null,"size_class":null,"mass_kg":null,"dimensions":null,"purposes":["comms"],"wikipedia_slug":null,"has_3d_model":false,"image_url":null,"decayed_at":null,"tle_current":{"epoch":"2026-09-21T22:52:17.875488Z","epoch_age_seconds":60106,"freshness":"FRESH","line1":"1 61926U 24207Q   26264.95298467  .00014279  00000+0  52722-3 0  9992","line2":"2 61926  42.9994 252.8633 0000645 252.6540 107.4241 15.27591945104744","mean_motion":15.27591945,"eccentricity":6.45e-5,"inclination_deg":42.9994,"raan_deg":252.8633,"arg_perigee_deg":252.654,"mean_anomaly_deg":107.4241,"bstar":0.00052722,"rev_number":10474,"period_min":94.266011595132,"perigee_km":482.57078444934,"apogee_km":483.45587284173,"semimajor_km":6861.1503286455,"source":"CELESTRAK","updated_at":"2026-09-22T09:00:49.451487Z"}}}